[[[{"header":{"parameterUnit":"kt","parameterCategory":2,"dx":1,"dy":1,"la1":30.253999710083008,"la2":30.299108505249023,"lo1":-89.0895004272461,"lo2":-89.04439544677734,"nx":28,"ny":28,"refTime":"2022-09-28T21:00:00:Z","depth":0,"parameterNumber":1,"parameterNumberName":"U-component_of_WINDS"},"data":[-2.5308,-2.5368,-2.5378,-2.545,-2.5471,-2.5522,-2.5543,-2.5571,-2.5596,-2.5657,-2.5694,-2.571,-2.5738,-2.5784,-2.5823,-2.5829,-2.5846,-2.5859,-2.5864,-2.5795,-2.5787,-2.5778,-2.5765,-2.5862,-2.5862,-2.5934,-2.5935,-2.5935,-2.5254,-2.5276,-2.5317,-2.5364,-2.54,-2.5392,-2.5429,-2.5459,-2.5504,-2.5535,-2.5572,-2.5627,-2.5671,-2.5696,-2.574,-2.5767,-2.5766,-2.5778,-2.5777,-2.5781,-2.5708,-2.5694,-2.5778,-2.5778,-2.5778,-2.5778,-2.5778,-2.5778,-2.516,-2.5195,-2.523,-2.5275,-2.5301,-2.5332,-2.5368,-2.5387,-2.5427,-2.5475,-2.5479,-2.5531,-2.5564,-2.5622,-2.5644,-2.5684,-2.5673,-2.5689,-2.5693,-2.5697,-2.5701,-2.5596,-2.5692,-2.5692,-2.5691,-2.5691,-2.5691,0,-2.5094,-2.51,-2.5141,-2.5185,-2.5218,-2.5253,-2.5287,-2.5309,-2.5325,-2.5358,-2.5406,-2.5435,-2.5492,-2.5539,-2.5582,-2.5602,-2.5599,-2.5599,-2.5611,-2.561,-2.5603,-2.5608,-2.5488,-2.5597,-2.5596,-2.5596,-2.5595,-2.5595,-2.5,-2.504,-2.5082,-2.5109,-2.513,-2.5174,-2.5202,-2.5214,-2.5243,-2.5286,-2.5316,-2.5363,-2.5401,-2.5476,-2.5498,-2.5541,-2.554,-2.558,-2.5546,-2.5543,-2.5541,-2.5539,-2.5543,-2.5587,-2.5588,-2.5589,-2.5589,0,-2.4945,-2.4963,-2.5029,-2.5066,-2.5077,-2.5118,-2.515,-2.5186,-2.5201,-2.5252,-2.5265,-2.5288,-2.5335,-2.5351,-2.5408,-2.5415,-2.5482,-2.548,-2.547,-2.5471,-2.5509,-2.5505,-2.5629,-2.5646,-2.5545,-2.5545,-2.5546,0,-2.4872,-2.4925,-2.4948,-2.4985,-2.5044,-2.5055,-2.5112,-2.5131,-2.5161,-2.5202,-2.52,-2.5238,-2.5253,-2.5293,-2.5303,-2.5361,-2.5371,-2.538,-2.5383,-2.5381,-2.538,-2.5398,-2.5394,-2.5386,-2.5385,-2.5385,-2.5384,0,-2.4787,-2.4861,-2.4922,-2.4942,-2.4988,-2.5016,-2.5036,-2.507,-2.5097,-2.5136,-2.5154,-2.5197,-2.5222,-2.5255,-2.5268,-2.5244,-2.5339,-2.531,-2.5348,-2.5348,-2.537,-2.5368,-2.5473,-2.5383,-2.5383,-2.5383,-2.5383,0,-2.4731,-2.477,-2.4856,-2.4894,-2.4913,-2.4954,-2.4998,-2.5036,-2.5072,-2.5081,-2.5111,-2.5113,-2.5165,-2.5134,-2.5206,-2.5172,-2.5196,-2.5209,-2.5212,-2.5219,-2.5185,-2.5242,-2.5339,-2.5351,-2.5223,-2.5222,-2.522,0,-2.4628,-2.472,-2.4731,-2.4812,-2.4857,-2.4853,-2.4898,-2.493,-2.4946,-2.4986,-2.5004,-2.5049,-2.503,-2.5047,-2.508,-2.51,-2.5145,-2.5095,-2.5152,-2.5154,-2.5143,-2.5233,-2.5244,-2.5316,-2.5204,-2.5205,-2.5207,0,-2.4551,-2.4607,-2.4621,-2.4645,-2.469,-2.4728,-2.4779,-2.4827,-2.4853,-2.4889,-2.4933,-2.4997,-2.4985,-2.5013,-2.5019,-2.5053,-2.5115,-2.5036,-2.5037,-2.505,-2.5197,-2.5207,-2.5219,-2.5111,-2.5114,-2.5115,-2.5193,0,-2.4463,-2.4512,-2.455,-2.4603,-2.4634,-2.4686,-2.4705,-2.4736,-2.4739,-2.4755,-2.4819,-2.4851,-2.49,-2.4918,-2.4922,-2.4994,-2.4985,-2.4972,-2.4945,-2.5003,-2.503,-2.504,-2.4904,-2.4904,-2.4903,-2.4903,0,0,-2.4361,-2.4432,-2.4443,-2.4494,-2.4522,-2.4518,-2.4572,-2.4599,-2.4653,-2.4671,-2.4656,-2.4752,-2.4779,-2.4855,-2.4874,-2.4894,-2.4909,-2.4889,-2.4975,-2.4983,-2.4991,-2.5019,-2.5029,-2.4902,-2.4901,-2.4901,-2.4901,0,-2.4334,-2.4361,-2.4415,-2.4443,-2.4485,-2.45,-2.4513,-2.4554,-2.4568,-2.4631,-2.4628,-2.4668,-2.4745,-2.4774,-2.4799,-2.4879,-2.4875,-2.4893,-2.493,-2.4969,-2.4978,-2.4985,-2.5014,-2.5025,-2.4899,-2.49,-2.49,0,-2.4262,-2.4292,-2.432,-2.4384,-2.4411,-2.4458,-2.4433,-2.4484,-2.4519,-2.4513,-2.4576,-2.4596,-2.4637,-2.4706,-2.4738,-2.4725,-2.4843,-2.4809,-2.4813,-2.4818,-2.4856,-2.4867,-2.4876,-2.4753,-2.4752,-2.4751,0,0,-2.4235,-2.4281,-2.4318,-2.4379,-2.4397,-2.4421,-2.4448,-2.4454,-2.4491,-2.4505,-2.4532,-2.4567,-2.4612,-2.4641,-2.4685,-2.4758,-2.4768,-2.479,-2.4797,-2.4803,-2.481,-2.485,-2.4861,-2.4749,-2.4749,-2.4749,0,0,-2.4223,-2.4269,-2.4266,-2.4339,-2.4374,-2.4415,-2.4451,-2.4449,-2.449,-2.4486,-2.4499,-2.451,-2.4575,-2.4595,-2.4563,-2.4675,-2.4648,-2.4656,-2.466,-2.4669,-2.4676,-2.467,-2.4544,0,0,0,0,0,-2.4205,-2.4263,-2.426,-2.4275,-2.4356,-2.4416,-2.4427,-2.4439,-2.4419,-2.4448,-2.4469,-2.4463,-2.4581,-2.4553,-2.4567,-2.4604,-2.4721,-2.4726,-2.473,-2.4753,-2.4762,-2.477,0,0,0,0,0,0,-2.4211,-2.423,-2.4258,-2.4301,-2.432,-2.4414,-2.4383,-2.4388,-2.4416,-2.4414,-2.4459,-2.4464,-2.4476,-2.4546,-2.4559,-2.4593,-2.4539,-2.4723,-2.4727,-2.4731,-2.4756,-2.4764,-2.477,0,0,0,0,0,-2.4216,-2.4231,-2.4357,-2.4301,-2.4316,-2.4347,-2.4381,-2.4385,-2.4407,-2.4441,-2.4447,-2.4414,-2.4477,-2.4489,-2.4554,-2.4587,-2.453,-2.4535,-2.4725,-2.4729,-2.4732,-2.476,0,0,0,0,0,0,-2.422,-2.4235,-2.4361,-2.4366,-2.428,-2.4342,-2.4352,-2.4382,-2.4433,-2.4439,-2.4397,-2.4395,-2.4478,-2.4487,-2.4496,-2.4584,-2.4523,-2.4528,-2.4531,-2.4728,-2.4731,-2.4733,0,0,0,0,0,0,-2.4227,-2.424,-2.4364,-2.4337,-2.434,-2.4337,-2.4346,-2.4403,-2.4433,-2.4386,-2.4385,-2.4396,-2.4464,-2.4486,-2.4493,-2.4582,-2.4517,-2.4522,-2.4525,-2.4527,-2.473,-2.4732,0,0,0,0,0,0,-2.4232,-2.4243,-2.4336,-2.4338,-2.434,-2.44,-2.4388,-2.447,-2.4411,-2.4383,-2.4406,-2.4403,-2.4464,-2.4471,-2.4491,-2.4577,-2.4581,-2.4517,-2.4521,-2.4523,-2.4524,0,0,0,0,0,0,0,-2.4237,-2.4162,-2.433,-2.4338,-2.434,-2.4415,-2.4416,-2.4418,-2.441,-2.4408,-2.4406,-2.4404,-2.449,-2.4496,-2.4501,-2.4573,0,0,-2.4517,-2.4519,0,0,0,0,0,0,0,0,-2.4158,-2.4161,-2.433,-2.4331,-2.4332,-2.4415,-2.4416,-2.4418,-2.441,-2.4408,-2.4407,-2.4405,-2.4492,-2.4496,-2.45,0,0,0,0,0,0,0,0,0,0,0,0,0,0,0,-2.433,-2.4331,0,-2.4415,-2.4416,-2.4417,-2.441,-2.4408,-2.4407,-2.4406,-2.4493,-2.4496,-2.45,0,0,0,0,0,0,0,0,0,0,0,0,0,0,0,0,0,0,0,0,0,0,0,0,0,0,0,0,0,0,0,0,0,0,0,0,0,0,0,0,0,0,0,0,0,0,0,0,0,0,0,0,0,0,0,0,0,0,0,0,0,0,0,0,0,0,0,0,0]}],[{"header":{"parameterUnit":"kt","parameterCategory":2,"dx":1,"dy":1,"la1":30.253999710083008,"la2":30.299108505249023,"lo1":-89.0895004272461,"lo2":-89.04439544677734,"nx":28,"ny":28,"refTime":"2022-09-28T21:00:00:Z","depth":0,"parameterNumber":2,"parameterNumberName":"V-component_of_WINDS"},"data":[-14.2073,-14.2206,-14.2205,-14.2353,-14.2376,-14.2476,-14.2511,-14.2554,-14.2587,-14.2703,-14.2768,-14.2775,-14.2803,-14.2877,-14.2944,-14.2945,-14.2974,-14.3024,-14.3016,-14.2798,-14.2767,-14.2738,-14.2708,-14.3031,-14.3031,-14.3243,-14.3245,-14.3246,-14.1918,-14.1944,-14.2022,-14.2096,-14.2162,-14.2114,-14.2166,-14.2224,-14.2312,-14.2353,-14.2416,-14.2516,-14.2592,-14.2602,-14.2673,-14.2731,-14.271,-14.2751,-14.2746,-14.2751,-14.2518,-14.2487,-14.2767,-14.2767,-14.2767,-14.2767,-14.2767,-14.2767,-14.1635,-14.1714,-14.1758,-14.1842,-14.1877,-14.1925,-14.1999,-14.2007,-14.208,-14.2157,-14.2135,-14.2234,-14.227,-14.2351,-14.2376,-14.245,-14.2403,-14.2445,-14.2455,-14.2466,-14.2481,-14.2179,-14.2461,-14.246,-14.246,-14.2459,-14.2458,0,-14.1427,-14.142,-14.1494,-14.1568,-14.1628,-14.1683,-14.1731,-14.1776,-14.1753,-14.1813,-14.19,-14.1948,-14.2041,-14.2119,-14.2183,-14.2199,-14.2149,-14.2143,-14.2171,-14.2185,-14.219,-14.219,-14.1811,-14.2134,-14.2131,-14.2129,-14.2127,-14.2126,-14.1142,-14.1233,-14.1275,-14.1327,-14.1353,-14.1436,-14.1484,-14.1457,-14.1508,-14.1561,-14.163,-14.1708,-14.1769,-14.1903,-14.1905,-14.1973,-14.1949,-14.2074,-14.1958,-14.1969,-14.1952,-14.1948,-14.1957,-14.2096,-14.21,-14.2103,-14.2106,0,-14.0982,-14.0976,-14.1115,-14.1145,-14.1155,-14.1251,-14.1275,-14.135,-14.1347,-14.1449,-14.1471,-14.1465,-14.1548,-14.153,-14.1618,-14.1605,-14.1759,-14.1734,-14.1748,-14.1742,-14.1853,-14.1843,-14.2211,-14.2258,-14.1923,-14.1926,-14.1929,0,-14.0736,-14.0855,-14.0839,-14.0919,-14.1051,-14.102,-14.115,-14.116,-14.1191,-14.1271,-14.1213,-14.1288,-14.1252,-14.1324,-14.1305,-14.1428,-14.1443,-14.1441,-14.1435,-14.1447,-14.1448,-14.1471,-14.1456,-14.1415,-14.1413,-14.1411,-14.141,0,-14.0487,-14.0616,-14.0747,-14.0775,-14.0817,-14.0878,-14.0898,-14.0931,-14.0976,-14.1031,-14.106,-14.1125,-14.1161,-14.1212,-14.1188,-14.1111,-14.1336,-14.1224,-14.1333,-14.1334,-14.1383,-14.1381,-14.1712,-14.1408,-14.1407,-14.1406,-14.1406,0,-14.0286,-14.0347,-14.0538,-14.0572,-14.0606,-14.069,-14.0755,-14.0823,-14.0861,-14.0856,-14.0898,-14.0856,-14.096,-14.0852,-14.0995,-14.0902,-14.094,-14.0946,-14.0954,-14.0961,-14.0841,-14.1031,-14.1348,-14.1381,-14.097,-14.0966,-14.0963,0,-14.0004,-14.0194,-14.0169,-14.0349,-14.0434,-14.0364,-14.0457,-14.0493,-14.0493,-14.0562,-14.056,-14.0638,-14.0553,-14.0575,-14.0648,-14.0648,-14.0769,-14.0631,-14.0729,-14.0733,-14.0723,-14.1015,-14.1067,-14.1281,-14.0916,-14.0921,-14.0925,0,-13.9784,-13.9835,-13.9868,-13.9899,-13.9942,-14.0011,-14.0117,-14.0189,-14.0237,-14.0281,-14.0369,-14.0476,-14.0417,-14.0452,-14.0423,-14.05,-14.0686,-14.0425,-14.0425,-14.0473,-14.089,-14.094,-14.0976,-14.0649,-14.0655,-14.066,-14.0887,0,-13.9486,-13.9578,-13.9668,-13.9735,-13.9785,-13.9895,-13.9877,-13.9932,-13.9901,-13.9898,-14.0024,-14.0044,-14.0113,-14.0147,-14.0115,-14.0298,-14.0264,-14.0199,-14.009,-14.0282,-14.0356,-14.0387,-13.9982,-13.9978,-13.9976,-13.9973,0,0,-13.9217,-13.9349,-13.9316,-13.9419,-13.9459,-13.9384,-13.9503,-13.9533,-13.9593,-13.9622,-13.9562,-13.9716,-13.9734,-13.9889,-13.9947,-13.9974,-14.0004,-13.9937,-14.0191,-14.0215,-14.0237,-14.0318,-14.035,-13.9968,-13.9967,-13.9966,-13.9965,0,-13.9105,-13.9131,-13.925,-13.9281,-13.9324,-13.9315,-13.9344,-13.9371,-13.9374,-13.9497,-13.943,-13.9502,-13.9624,-13.9654,-13.9684,-13.9919,-13.9862,-13.9941,-14.0075,-14.0163,-14.0191,-14.0216,-14.0301,-14.0332,-13.9958,-13.9959,-13.9959,0,-13.8886,-13.8908,-13.8964,-13.9052,-13.9078,-13.9165,-13.9049,-13.9144,-13.9207,-13.9114,-13.9237,-13.9244,-13.928,-13.9428,-13.9493,-13.9439,-13.9734,-13.9636,-13.9653,-13.9659,-13.9743,-13.9777,-13.9807,-13.9411,-13.9409,-13.9407,0,0,-13.879,-13.8875,-13.8888,-13.9026,-13.9048,-13.9035,-13.9078,-13.9051,-13.9087,-13.9101,-13.9109,-13.9144,-13.9214,-13.9261,-13.9326,-13.9491,-13.9495,-13.9569,-13.9595,-13.9617,-13.9635,-13.9724,-13.9757,-13.94,-13.94,-13.94,0,0,-13.8743,-13.8765,-13.8728,-13.8886,-13.8925,-13.8943,-13.9027,-13.8981,-13.9037,-13.9022,-13.8976,-13.8983,-13.9121,-13.9129,-13.9042,-13.9287,-13.918,-13.9201,-13.9276,-13.9308,-13.9333,-13.9328,-13.8922,0,0,0,0,0,-13.8618,-13.8763,-13.8729,-13.8753,-13.8861,-13.8963,-13.8976,-13.8944,-13.8871,-13.8938,-13.8938,-13.8874,-13.9073,-13.8994,-13.9016,-13.9115,-13.9313,-13.9328,-13.9343,-13.9479,-13.9513,-13.9541,0,0,0,0,0,0,-13.8627,-13.8657,-13.8725,-13.8751,-13.8775,-13.8957,-13.8826,-13.8821,-13.8863,-13.8849,-13.8876,-13.8875,-13.8846,-13.898,-13.9001,-13.9095,-13.8915,-13.9319,-13.9332,-13.9344,-13.949,-13.9518,-13.9542,0,0,0,0,0,-13.8634,-13.8658,-13.884,-13.8748,-13.8769,-13.8762,-13.882,-13.8815,-13.8846,-13.8845,-13.8841,-13.8818,-13.885,-13.8865,-13.8992,-13.9086,-13.89,-13.8908,-13.9327,-13.9338,-13.9347,-13.9504,0,0,0,0,0,0,-13.8639,-13.8652,-13.8843,-13.8848,-13.8691,-13.875,-13.8759,-13.881,-13.8838,-13.8837,-13.8784,-13.8773,-13.8854,-13.8865,-13.8877,-13.9086,-13.8888,-13.8896,-13.8901,-13.9335,-13.9343,-13.9351,0,0,0,0,0,0,-13.8639,-13.8657,-13.8846,-13.8776,-13.8772,-13.8741,-13.8748,-13.885,-13.8839,-13.8775,-13.8767,-13.8779,-13.8835,-13.8866,-13.8875,-13.9035,-13.8879,-13.8887,-13.8892,-13.8895,-13.9342,-13.9348,0,0,0,0,0,0,-13.8646,-13.8662,-13.8774,-13.8772,-13.8768,-13.8822,-13.8829,-13.8941,-13.8783,-13.8775,-13.8768,-13.8761,-13.8838,-13.8846,-13.8874,-13.9031,-13.9034,-13.8879,-13.8885,-13.8888,-13.8891,0,0,0,0,0,0,0,-13.8652,-13.8559,-13.8814,-13.8768,-13.8765,-13.8895,-13.8896,-13.8897,-13.8782,-13.8776,-13.877,-13.8764,-13.8836,-13.8844,-13.8852,-13.9028,0,0,-13.8879,-13.8882,0,0,0,0,0,0,0,0,-13.8551,-13.8557,-13.8815,-13.8816,-13.8817,-13.8895,-13.8896,-13.8897,-13.8781,-13.8776,-13.8771,-13.8766,-13.8838,-13.8845,-13.8851,0,0,0,0,0,0,0,0,0,0,0,0,0,0,0,-13.8815,-13.8816,0,-13.8895,-13.8896,-13.8897,-13.878,-13.8776,-13.8772,-13.8768,-13.884,-13.8845,-13.8851,0,0,0,0,0,0,0,0,0,0,0,0,0,0,0,0,0,0,0,0,0,0,0,0,0,0,0,0,0,0,0,0,0,0,0,0,0,0,0,0,0,0,0,0,0,0,0,0,0,0,0,0,0,0,0,0,0,0,0,0,0,0,0,0,0,0,0,0,0]}]]]